QPF
0.00 0.00 0.00 0.00 0.00 0.00 0.00 0.00 0.00 0.00 0.00 0.00 0.00 0.00 0.00 0.00 0.00 0.00 0.00 0.00 0.00 0.00 0.00 0.00 0.00 0.00 0.00 0.00 0.00 0.00 0.00 0.00 0.00 0.00 0.00 0.00 0.00 0.00 0.00 0.00 0.00 0.00 0.00 0.00 0.00
0.00 0.00 0.00 0.00 0.00 0.00 0.00 0.00 0.00 0.00 0.00 0.00 0.00 0.00 0.00 0.00 0.00 0.00 0.00 0.00 0.00 0.00 0.00 0.00 0.00 0.00 0.00 0.00 0.00 0.00 0.00 0.00 0.00 0.00 0.00 0.00 0.00 0.00 0.00 0.00 0.00 0.00 0.00 0.00 0.00
0.00 0.00 0.00 0.00 0.00 0.00 0.00 0.00 0.00 0.00 0.00 0.00 0.00 0.00 0.00 0.00 0.00 0.00 0.00 0.00 0.00 0.00 0.00 0.00 0.00 0.00 0.00 0.00 0.00 0.00 0.00 0.00 0.00 0.00 0.00 0.00 0.00 0.00 0.00 0.00 0.00 0.00 0.00 0.00 0.00
0.00 0.00 0.00 0.00 0.00 0.00 0.00 0.00 0.00 0.00 0.00 0.00 0.00 0.00 0.00 0.00 0.00 0.00 0.00 0.00 0.00 0.00 0.00 0.00 0.00 0.00 0.00 0.00 0.00 0.00 0.00 0.00 0.00 0.00 0.00 0.00 0.00 0.00 0.00 0.00 0.00 0.00 0.00 0.00 0.00
0.00 0.00 0.00 0.00 0.00 0.00 0.00 0.00 0.00 0.00 0.00 0.00 0.00 0.00 0.00 0.00 0.00 0.00 0.00 0.00 0.00 0.00 0.00 0.00 0.00 0.00 0.00 0.00 0.00 0.00 0.00 0.00 0.00 0.00 0.00 0.00 0.00 0.00 0.00 0.00 0.00 0.00 0.00 0.00 0.00
0.00 0.00 0.00 0.00 0.00 0.00 0.00 0.00 0.00 0.00 0.00 0.00 0.00 0.00 0.00 0.00 0.00 0.00 0.00 0.00 0.00 0.00 0.00 0.00 0.00 0.00 0.00 0.00 0.00 0.00 0.00 0.00 0.00 0.00 0.00 0.00 0.00 0.00 0.00 0.00 0.00 0.00 0.00 0.00 0.00
0.00 0.00 0.00 0.00 0.00 0.00 0.00 0.00 0.00 0.00 0.00 0.00 0.00 0.00 0.00 0.00 0.00 0.00 0.00 0.00 0.00 0.00 0.00 0.00 0.00 0.00 0.00 0.00 0.00 0.00 0.00 0.00 0.00 0.00 0.00 0.00 0.00 0.00 0.00 0.00 0.00 0.00 0.00 0.00 0.00
0.00 0.00 0.00 0.00 0.00 0.00 0.00 0.00 0.00 0.00 0.00 0.00 0.00 0.00 0.00 0.00 0.00 0.00 0.00 0.00 0.00 0.00 0.00 0.00 0.00 0.00 0.00 0.00 0.00 0.00 0.00 0.00 0.00 0.00 0.00 0.00 0.00 0.00 0.00 0.00 0.00 0.00 0.00 0.00 0.00
0.00 0.00 0.00 0.00 0.00 0.00 0.00 0.00 0.00 0.00 0.00 0.00 0.00 0.00 0.00 0.00 0.00 0.00 0.00 0.00 0.00 0.00 0.00 0.00 0.00 0.00 0.00 0.00 0.00 0.00 0.00 0.00 0.00 0.00 0.00 0.00 0.00 0.00 0.00 0.00 0.00 0.00 0.00 0.00 0.00
0.00 0.00 0.00 0.00 0.00 0.00 0.00 0.00 0.00 0.00 0.00 0.00 0.00 0.00 0.00 0.00 0.00 0.00 0.00 0.00 0.00 0.00 0.00 0.00 0.00 0.00 0.00 0.00 0.00 0.00 0.00 0.00 0.00 0.00 0.00 0.00 0.00 0.00 0.00 0.00 0.00 0.00 0.00 0.00 0.00
0.00 0.00 0.00 0.00 0.00 0.00 0.00 0.00 0.00 0.00 0.00 0.00 0.00 0.00 0.00 0.00 0.00 0.00 0.00 0.00 0.00 0.00 0.00 0.00 0.00 0.00 0.00 0.00 0.00 0.00 0.00 0.00 0.00 0.00 0.00 0.00 0.00 0.00 0.00 0.00 0.00 0.00 0.00 0.00 0.00
0.00 0.00 0.00 0.00 0.00 0.00 0.00 0.00 0.00 0.00 0.00 0.00 0.00 0.00 0.00 0.00 0.00 0.00 0.00 0.00 0.00 0.00 0.00 0.00 0.00 0.00 0.00 0.00 0.00 0.00 0.00 0.00 0.00 0.00 0.00 0.00 0.00 0.00 0.00 0.00 0.00 0.00 0.00 0.00 0.00
0.00 0.00 0.00 0.00 0.00 0.00 0.00 0.00 0.00 0.00 0.00 0.00 0.00 0.00 0.00 0.00 0.00 0.00 0.00 0.00 0.00 0.00 0.00 0.00 0.00 0.00 0.00 0.00 0.00 0.00 0.00 0.00 0.00 0.00 0.00 0.00 0.00 0.00 0.00 0.00 0.00 0.00 0.00 0.00 0.00
0.00 0.00 0.00 0.00 0.00 0.00 0.00 0.00 0.00 0.00 0.00 0.00 0.00 0.00 0.00 0.00 0.00 0.00 0.00 0.00 0.00 0.00 0.00 0.00 0.00 0.00 0.00 0.00 0.00 0.00 0.00 0.00 0.00 0.00 0.00 0.00 0.00 0.00 0.00 0.00 0.00 0.00 0.00 0.00 0.00
0.00 0.00 0.00 0.00 0.00 0.00 0.00 0.00 0.00 0.00 0.00 0.00 0.00 0.00 0.00 0.00 0.00 0.00 0.00 0.00 0.00 0.00 0.00 0.00 0.00 0.00 0.00 0.00 0.00 0.00 0.00 0.00 0.00 0.00 0.00 0.00 0.00 0.00 0.00 0.00 0.00 0.00 0.00 0.00 0.00
0.00 0.00 0.00 0.00 0.00 0.00 0.00 0.00 0.00 0.00 0.00 0.00 0.00 0.00 0.00 0.00 0.00 0.00 0.00 0.00 0.00 0.00 0.00 0.00 0.00 0.00 0.00 0.00 0.00 0.00 0.00 0.00 0.00 0.00 0.01 0.00 0.00 0.00 0.00 0.00 0.00 0.00 0.00 0.00 0.00
0.00 0.00 0.00 0.00 0.00 0.00 0.00 0.00 0.01 0.00 0.00 0.00 0.00 0.00 0.00 0.00 0.00 0.00 0.00 0.00 0.00 0.00 0.00 0.00 0.00 0.00 0.00 0.00 0.00 0.00 0.02 0.01 0.01 0.01 0.00 0.00 0.00 0.00 0.00 0.00 0.00 0.00 0.01 0.00 0.00
0.00 0.00 0.00 0.00 0.00 0.00 0.01 0.01 0.00 0.00 0.00 0.00 0.00 0.00 0.00 0.00 0.00 0.00 0.00 0.00 0.00 0.00 0.01 0.02 0.01 0.00 0.00 0.00 0.00 0.00 0.01 0.01 0.01 0.02 0.00 0.00 0.00 0.00 0.01 0.00 0.00 0.01 0.00 0.00 0.00
0.00 0.00 0.00 0.00 0.00 0.00 0.02 0.01 0.00 0.00 0.00 0.00 0.00 0.00 0.00 0.00 0.00 0.00 0.00 0.00 0.00 0.00 0.01 0.02 0.01 0.00 0.00 0.00 0.00 0.01 0.00 0.00 0.01 0.01 0.01 0.00 0.01 0.03 0.02 0.00 0.01 0.01 0.00 0.00 0.00
0.00 0.00 0.00 0.00 0.00 0.01 0.02 0.01 0.00 0.00 0.00 0.00 0.00 0.00 0.00 0.00 0.00 0.00 0.00 0.00 0.00 0.00 0.00 0.01 0.00 0.00 0.00 0.00 0.00 0.00 0.01 0.01 0.01 0.02 0.01 0.00 0.01 0.04 0.01 0.00 0.00 0.00 0.00 0.00 0.00
0.00 0.00 0.00 0.00 0.00 0.00 0.00 0.00 0.00 0.00 0.00 0.00 0.00 0.00 0.00 0.00 0.00 0.00 0.00 0.00 0.01 0.00 0.00 0.00 0.00 0.00 0.00 0.00 0.00 0.00 0.01 0.01 0.02 0.01 0.02 0.01 0.02 0.03 0.04 0.01 0.00 0.00 0.00 0.00 0.00
0.00 0.01 0.00 0.00 0.00 0.00 0.00 0.00 0.00 0.00 0.00 0.00 0.00 0.00 0.00 0.00 0.00 0.00 0.01 0.00 0.00 0.00 0.00 0.00 0.00 0.01 0.00 0.00 0.00 0.00 0.00 0.00 0.02 0.02 0.02 0.02 0.02 0.01 0.01 0.00 0.00 0.00 0.00 0.00 0.00
0.01 0.00 0.00 0.00 0.00 0.00 0.00 0.00 0.00 0.00 0.00 0.00 0.00 0.00 0.00 0.00 0.00 0.00 0.01 0.00 0.00 0.00 0.00 0.00 0.00 0.00 0.01 0.00 0.00 0.00 0.00 0.00 0.00 0.00 0.00 0.00 0.02 0.02 0.00 0.00 0.00 0.00 0.00 0.00 0.00
0.02 0.01 0.00 0.00 0.00 0.01 0.00 0.00 0.00 0.00 0.00 0.00 0.00 0.00 0.00 0.00 0.00 0.01 0.01 0.00 0.00 0.00 0.00 0.00 0.00 0.00 0.01 0.00 0.00 0.00 0.00 0.00 0.00 0.00 0.00 0.00 0.01 0.02 0.00 0.00 0.00 0.00 0.00 0.00 0.00
0.02 0.03 0.00 0.00 0.00 0.01 0.02 0.01 0.00 0.00 0.00 0.00 0.01 0.01 0.01 0.01 0.01 0.01 0.01 0.00 0.00 0.00 0.00 0.00 0.00 0.00 0.00 0.00 0.00 0.00 0.00 0.00 0.00 0.00 0.00 0.00 0.00 0.00 0.00 0.00 0.00 0.00 0.00 0.00 0.00
0.01 0.03 0.01 0.00 0.00 0.00 0.02 0.02 0.01 0.00 0.00 0.00 0.01 0.01 0.01 0.02 0.01 0.01 0.01 0.00 0.00 0.00 0.00 0.00 0.00 0.00 0.00 0.00 0.00 0.00 0.00 0.00 0.00 0.00 0.00 0.00 0.00 0.00 0.00 0.00 0.00 0.00 0.00 0.00 0.00
0.01 0.02 0.03 0.02 0.01 0.01 0.01 0.01 0.01 0.01 0.00 0.00 0.01 0.01 0.02 0.02 0.00 0.00 0.00 0.00 0.00 0.00 0.00 0.00 0.00 0.00 0.00 0.00 0.00 0.00 0.00 0.00 0.00 0.00 0.00 0.00 0.00 0.00 0.00 0.00 0.00 0.00 0.00 0.00 0.00
MSLP
1017.14 1017.12 1017.06 1017.22 1017.21 1017.22 1017.28 1017.49 1017.52 1017.75 1017.61 1017.56 1017.40 1017.28 1016.87 1016.16 1015.13 1013.27 1012.59 1011.73 1011.10 1011.47 1011.85 1010.98 1009.91 1009.54 1009.19 1008.59 1007.92 1007.28 1006.34 1005.14 1003.66 1002.27 1000.92 1000.09 999.68 1000.20 1000.71 1000.85 1001.51 1001.65 1002.11 1002.26 1002.24
1017.02 1016.92 1016.79 1016.71 1016.99 1017.04 1016.91 1017.13 1017.38 1017.52 1017.53 1017.52 1017.46 1017.33 1016.90 1016.31 1015.21 1012.65 1011.68 1011.57 1011.54 1011.50 1011.26 1010.42 1009.41 1008.84 1008.45 1008.04 1007.50 1006.84 1005.75 1004.21 1003.63 1002.35 1001.29 1000.60 1000.60 1000.30 1000.88 1001.13 1001.42 1001.73 1001.84 1002.02 1002.56
1016.76 1016.78 1016.72 1016.61 1016.54 1016.83 1016.52 1016.63 1016.92 1017.27 1017.43 1017.41 1017.44 1017.29 1017.11 1016.49 1014.24 1011.29 1011.39 1011.42 1011.47 1011.58 1011.09 1010.15 1009.42 1008.83 1008.09 1007.70 1007.06 1006.22 1005.11 1004.90 1003.83 1002.97 1002.41 1001.82 1001.43 1001.43 1001.11 1000.71 1000.98 1001.24 1001.48 1001.67 1002.06
1016.58 1016.50 1016.45 1016.33 1016.29 1016.53 1016.15 1016.27 1016.52 1016.77 1017.19 1017.44 1017.55 1017.24 1017.03 1016.38 1013.14 1010.92 1011.29 1011.47 1011.50 1011.21 1010.85 1010.07 1009.21 1008.74 1008.07 1007.32 1006.64 1006.00 1005.16 1004.75 1004.15 1003.75 1003.12 1002.30 1001.99 1001.76 1001.67 1001.11 1001.06 1001.11 1001.34 1001.64 1002.09
1016.45 1016.24 1016.00 1016.05 1015.99 1016.15 1016.09 1015.91 1016.20 1016.40 1016.72 1017.25 1017.46 1017.39 1016.80 1014.98 1011.88 1010.20 1010.90 1011.09 1011.15 1010.87 1010.14 1009.55 1009.14 1008.51 1007.71 1007.10 1006.53 1005.60 1004.94 1004.27 1003.71 1003.34 1002.97 1002.71 1002.29 1001.91 1001.28 1001.52 1001.21 1001.13 1001.33 1001.46 1001.79
1015.98 1015.93 1015.68 1015.52 1015.64 1015.87 1015.75 1015.71 1015.95 1016.26 1016.44 1016.91 1017.00 1017.39 1016.53 1013.68 1010.42 1009.57 1009.94 1009.95 1010.54 1010.30 1009.82 1009.27 1008.73 1008.34 1007.63 1007.25 1006.87 1006.27 1005.49 1004.64 1004.19 1003.32 1002.99 1002.83 1001.86 1001.94 1001.13 1001.44 1001.02 1001.00 1000.92 1001.12 1001.52
1015.55 1015.29 1015.24 1015.21 1015.31 1015.24 1015.44 1015.38 1015.55 1016.10 1016.52 1016.70 1016.89 1016.84 1015.25 1011.99 1010.15 1009.17 1009.00 1008.95 1009.20 1009.45 1009.14 1008.81 1008.70 1008.45 1007.98 1007.15 1006.64 1006.07 1005.28 1004.51 1003.95 1003.67 1002.79 1003.09 1000.88 1000.66 1001.05 1001.05 1000.53 1000.50 1000.56 1000.88 1001.32
1014.98 1014.77 1014.71 1014.70 1014.78 1015.01 1014.91 1014.94 1015.38 1016.03 1016.38 1016.77 1016.85 1016.69 1013.18 1010.14 1009.41 1009.42 1009.20 1008.50 1008.29 1008.74 1008.74 1008.78 1008.73 1008.33 1008.28 1007.98 1007.18 1006.80 1006.04 1004.42 1003.07 1002.90 1001.71 1002.56 998.93 1000.45 1000.01 999.77 999.73 1000.02 1000.21 1000.43 1001.14
1014.44 1014.21 1014.21 1014.19 1014.35 1014.45 1014.59 1014.74 1015.17 1016.16 1016.61 1016.76 1016.77 1015.61 1011.09 1008.97 1009.02 1008.38 1008.52 1008.32 1007.94 1008.06 1008.54 1008.93 1008.99 1008.53 1008.68 1008.23 1007.03 1006.55 1005.03 1004.51 1002.17 1002.54 1001.36 1000.77 998.83 999.25 999.61 999.16 998.89 999.30 999.88 1000.23 1001.00
1013.68 1013.84 1013.37 1013.58 1013.70 1014.09 1014.46 1015.17 1015.85 1016.49 1016.79 1016.44 1015.53 1015.03 1010.56 1008.12 1007.14 1007.62 1007.75 1008.26 1008.14 1008.03 1008.17 1008.77 1008.63 1008.02 1008.05 1008.19 1006.32 1005.86 1005.03 1003.53 1002.18 1001.99 1001.20 999.95 998.97 998.71 998.88 998.32 999.02 999.32 999.68 1000.08 1000.73
1013.11 1013.16 1012.87 1012.68 1013.37 1013.82 1014.81 1015.81 1016.43 1016.18 1015.36 1012.74 1011.09 1009.75 1007.90 1006.72 1006.94 1007.30 1007.53 1007.91 1008.23 1008.20 1007.90 1007.86 1007.92 1006.70 1006.88 1006.58 1006.30 1005.90 1005.32 1004.52 1003.31 1002.79 1002.28 1001.20 1001.41 999.23 998.78 998.73 998.64 999.52 999.59 999.92 1000.61
1012.33 1012.38 1012.38 1012.29 1012.65 1013.66 1014.04 1013.78 1012.57 1012.09 1011.58 1010.89 1009.72 1008.57 1008.02 1007.30 1006.45 1006.39 1007.13 1007.26 1007.70 1007.51 1007.68 1007.44 1005.73 1006.34 1006.31 1006.26 1006.23 1006.26 1005.90 1005.40 1005.19 1004.46 1003.95 1002.70 1002.24 1001.66 999.02 998.43 998.07 998.81 999.09 999.66 1000.53
1011.50 1011.75 1011.73 1012.10 1012.64 1013.44 1013.25 1012.85 1012.55 1012.10 1010.98 1007.72 1007.06 1006.48 1006.49 1006.92 1005.47 1005.27 1006.11 1006.34 1006.49 1006.57 1006.80 1006.20 1005.56 1005.71 1005.58 1006.09 1006.58 1006.46 1006.26 1006.82 1006.51 1006.13 1005.54 1004.57 1003.63 1001.79 999.88 998.62 998.12 997.94 998.55 999.12 1000.53
1010.80 1010.91 1011.11 1011.72 1013.27 1013.00 1013.04 1012.86 1012.73 1012.61 1011.31 1005.84 1004.43 1003.22 1003.98 1004.93 1004.40 1004.42 1004.75 1005.55 1005.75 1005.35 1006.05 1005.73 1005.48 1005.52 1005.38 1005.31 1006.61 1006.79 1007.70 1007.83 1007.91 1008.10 1007.21 1006.83 1004.05 1002.27 1000.50 998.68 997.98 997.77 998.72 999.81 1001.51
1010.04 1009.94 1010.59 1010.95 1011.49 1012.19 1012.85 1012.93 1012.38 1012.91 1010.49 1003.60 1002.55 1002.81 1003.06 1003.66 1003.22 1003.14 1004.14 1004.92 1004.86 1005.22 1006.14 1005.04 1005.92 1006.16 1005.97 1005.64 1006.29 1007.37 1009.27 1009.53 1009.70 1009.23 1008.42 1006.44 1005.84 1001.52 1000.47 998.94 998.49 998.54 999.86 1001.73 1003.18
1009.06 1009.50 1010.25 1011.07 1011.24 1011.94 1012.37 1012.70 1012.81 1012.69 1007.92 1003.84 1002.71 1002.93 1003.19 1003.40 1003.42 1003.24 1004.06 1004.67 1005.16 1005.42 1005.92 1006.22 1007.36 1007.54 1006.98 1007.06 1007.48 1008.99 1010.27 1010.25 1010.28 1009.82 1008.18 1005.58 1005.93 1002.52 1001.20 999.05 998.10 999.35 1001.28 1003.34 1004.56
1008.64 1009.24 1009.99 1010.51 1010.88 1011.65 1012.25 1012.63 1012.48 1009.64 1005.25 1003.17 1002.17 1002.32 1002.82 1002.74 1003.18 1003.54 1003.64 1004.42 1005.30 1006.08 1006.24 1006.44 1006.63 1006.86 1007.36 1007.49 1007.72 1009.22 1010.61 1010.55 1010.01 1009.03 1005.90 1005.30 1005.50 1003.94 1002.07 1001.17 998.84 1001.60 1003.58 1004.49 1005.25
1009.77 1010.06 1010.70 1010.86 1010.78 1011.29 1011.75 1011.68 1009.69 1006.20 1004.89 1002.53 1002.26 1001.61 1002.01 1002.43 1002.48 1002.79 1003.33 1003.56 1004.78 1005.75 1005.76 1005.77 1005.05 1005.42 1006.26 1006.79 1007.17 1008.24 1009.77 1009.45 1008.73 1007.85 1006.37 1005.50 1005.52 1004.40 1003.79 1002.76 1002.48 1004.22 1004.98 1005.48 1005.91
1010.73 1010.84 1011.03 1011.17 1011.04 1011.47 1011.21 1009.93 1007.57 1005.44 1003.36 1002.72 1002.59 1002.39 1001.76 1001.89 1002.18 1002.33 1002.73 1002.75 1003.24 1005.44 1006.18 1005.19 1004.54 1004.29 1005.00 1006.01 1006.86 1007.93 1008.84 1008.28 1008.95 1008.46 1007.44 1005.89 1005.14 1004.95 1004.27 1003.58 1004.84 1005.93 1006.68 1006.73 1006.79
1010.96 1011.31 1011.43 1011.36 1011.36 1011.95 1010.92 1008.15 1006.29 1004.97 1004.33 1003.85 1003.15 1003.78 1002.69 1002.36 1002.48 1003.18 1002.44 1001.95 1002.53 1004.04 1004.96 1005.97 1005.29 1004.89 1005.01 1005.69 1006.08 1006.28 1007.11 1008.44 1009.15 1008.15 1006.77 1005.01 1005.02 1005.23 1004.89 1005.09 1005.61 1006.66 1007.55 1007.94 1008.56
1011.21 1011.53 1011.63 1011.67 1011.66 1011.98 1009.67 1007.42 1006.21 1004.81 1004.50 1004.11 1003.52 1003.37 1003.59 1003.34 1003.07 1003.91 1003.83 1002.73 1002.61 1003.31 1004.60 1006.08 1005.40 1005.33 1005.57 1004.85 1004.25 1005.16 1005.73 1007.62 1008.09 1007.26 1006.87 1006.13 1006.69 1006.59 1006.41 1006.41 1006.43 1006.72 1007.38 1007.88 1008.71
1011.16 1011.32 1011.51 1011.75 1012.17 1011.14 1008.81 1006.77 1005.71 1004.75 1003.91 1003.95 1003.96 1003.56 1003.40 1003.79 1003.66 1003.40 1004.37 1004.11 1003.80 1004.24 1005.01 1005.48 1005.36 1005.27 1004.97 1004.16 1004.38 1004.43 1005.23 1006.76 1007.33 1007.13 1006.96 1007.14 1007.29 1008.00 1008.30 1007.56 1006.89 1006.96 1007.93 1008.97 1009.93
1010.84 1011.05 1011.81 1011.46 1010.62 1009.77 1008.24 1006.45 1005.74 1004.27 1003.89 1003.93 1003.92 1004.04 1004.09 1004.32 1004.64 1004.44 1004.61 1005.94 1005.53 1005.14 1005.35 1005.56 1005.72 1005.56 1005.53 1005.23 1004.47 1004.44 1004.78 1005.21 1006.19 1006.39 1006.60 1007.01 1007.38 1008.17 1007.95 1007.26 1007.67 1008.26 1008.94 1010.15 1011.40
1010.49 1010.26 1011.39 1011.11 1010.12 1008.52 1007.60 1006.28 1005.31 1004.34 1004.00 1004.08 1004.20 1004.51 1004.23 1004.46 1004.73 1004.86 1005.47 1006.15 1005.94 1005.74 1006.25 1005.93 1005.78 1005.62 1005.37 1005.45 1004.43 1004.13 1004.37 1004.80 1005.42 1006.23 1006.25 1006.62 1007.25 1008.23 1008.30 1008.28 1009.13 1009.87 1010.60 1011.77 1012.93
1009.67 1008.48 1007.81 1008.80 1008.85 1008.13 1006.80 1005.43 1004.86 1004.24 1003.96 1004.25 1004.48 1004.44 1004.46 1004.68 1004.69 1004.93 1005.56 1006.13 1006.44 1006.89 1006.61 1006.36 1006.29 1005.94 1005.72 1005.48 1005.10 1004.63 1004.60 1004.77 1005.20 1005.68 1006.18 1006.78 1007.36 1008.79 1009.57 1010.17 1011.01 1011.54 1012.16 1013.18 1014.03
1008.60 1007.33 1006.37 1005.54 1006.82 1007.57 1006.23 1004.94 1004.00 1003.78 1003.84 1003.93 1004.14 1004.23 1004.71 1004.74 1004.82 1005.01 1005.51 1005.81 1006.30 1007.01 1006.82 1007.09 1007.02 1006.79 1006.45 1005.98 1005.83 1005.64 1005.45 1005.52 1005.66 1005.98 1006.43 1007.17 1008.32 1010.29 1011.64 1012.34 1012.94 1013.28 1014.06 1015.07 1015.91
1007.79 1006.49 1006.03 1005.04 1005.74 1005.79 1004.94 1004.55 1004.04 1003.64 1003.80 1003.46 1003.88 1004.30 1004.54 1005.03 1005.63 1005.24 1005.39 1005.70 1005.97 1006.83 1007.26 1007.30 1007.41 1007.26 1006.65 1006.35 1006.57 1006.59 1006.42 1006.37 1006.58 1006.77 1007.40 1008.30 1010.21 1011.49 1013.13 1014.46 1015.47 1016.05 1016.59 1017.27 1018.05
Thickness
5645 5646 5648 5645 5646 5647 5647 5645 5644 5641 5644 5644 5644 5645 5650 5658 5665 5682 5686 5693 5699 5695 5690 5698 5703 5704 5707 5704 5711 5715 5692 5689 5711 5723 5738 5769 5760 5764 5769 5755 5756 5754 5754 5761 5766
5635 5637 5639 5641 5638 5639 5641 5640 5638 5638 5638 5638 5639 5639 5642 5649 5659 5676 5689 5688 5688 5689 5689 5689 5692 5699 5695 5698 5702 5698 5690 5706 5722 5734 5736 5750 5749 5754 5746 5741 5741 5742 5754 5757 5756
5628 5628 5631 5632 5633 5631 5636 5636 5635 5633 5631 5631 5632 5633 5633 5639 5659 5682 5684 5683 5682 5681 5683 5688 5691 5690 5687 5693 5696 5699 5692 5705 5717 5726 5729 5730 5736 5742 5737 5733 5741 5736 5743 5746 5746
5622 5623 5624 5626 5626 5625 5629 5631 5630 5629 5625 5622 5622 5626 5627 5632 5648 5678 5677 5676 5675 5676 5676 5677 5681 5674 5675 5678 5694 5682 5701 5704 5710 5715 5714 5715 5729 5723 5727 5733 5742 5745 5744 5740 5735
5614 5617 5620 5620 5622 5621 5621 5625 5624 5624 5621 5617 5614 5616 5623 5634 5657 5672 5672 5669 5668 5670 5670 5670 5666 5668 5667 5677 5685 5685 5694 5704 5710 5711 5711 5712 5709 5714 5722 5729 5737 5739 5736 5733 5731
5607 5609 5612 5615 5615 5613 5614 5618 5615 5614 5615 5611 5610 5606 5614 5628 5666 5671 5669 5669 5662 5663 5662 5666 5664 5669 5668 5669 5667 5676 5682 5688 5694 5699 5701 5691 5703 5705 5719 5724 5725 5725 5726 5727 5724
5601 5604 5606 5607 5607 5608 5607 5608 5608 5605 5603 5604 5600 5600 5612 5639 5656 5663 5663 5665 5663 5659 5654 5662 5661 5656 5660 5658 5672 5672 5665 5677 5682 5681 5687 5681 5694 5698 5709 5712 5713 5715 5717 5717 5715
5594 5597 5599 5599 5599 5598 5600 5601 5598 5594 5594 5590 5589 5590 5616 5648 5652 5653 5652 5654 5660 5656 5652 5652 5652 5650 5643 5648 5649 5641 5645 5643 5682 5679 5693 5665 5686 5693 5708 5705 5704 5705 5707 5708 5706
5587 5591 5592 5592 5591 5591 5590 5591 5589 5581 5577 5578 5581 5589 5619 5644 5639 5648 5646 5641 5646 5646 5642 5638 5634 5632 5627 5617 5624 5629 5622 5628 5661 5672 5678 5671 5675 5695 5698 5696 5697 5696 5698 5697 5692
5579 5580 5586 5584 5584 5581 5579 5575 5568 5563 5565 5568 5578 5578 5613 5627 5642 5640 5641 5631 5628 5628 5623 5616 5615 5616 5612 5600 5602 5612 5614 5634 5642 5661 5662 5665 5669 5684 5686 5689 5681 5683 5684 5684 5682
5571 5573 5575 5580 5574 5571 5564 5553 5551 5552 5558 5594 5604 5613 5624 5636 5636 5624 5624 5615 5613 5608 5598 5601 5596 5607 5605 5608 5604 5603 5602 5599 5622 5636 5630 5637 5625 5660 5671 5671 5668 5665 5672 5673 5668
5564 5564 5565 5567 5566 5558 5554 5558 5569 5568 5579 5586 5598 5607 5613 5615 5614 5618 5611 5601 5594 5589 5590 5587 5598 5600 5601 5598 5588 5581 5577 5578 5588 5606 5611 5610 5604 5616 5656 5661 5667 5662 5663 5663 5654
5557 5554 5555 5553 5550 5547 5549 5551 5552 5552 5559 5600 5604 5608 5607 5600 5612 5616 5603 5600 5591 5587 5582 5578 5595 5596 5590 5579 5568 5571 5568 5564 5563 5575 5581 5579 5582 5608 5635 5650 5659 5662 5662 5658 5640
5546 5546 5545 5541 5533 5537 5538 5538 5536 5533 5530 5599 5607 5620 5614 5605 5606 5616 5606 5594 5586 5584 5578 5577 5589 5581 5581 5577 5565 5552 5561 5554 5551 5542 5537 5559 5551 5590 5618 5635 5647 5653 5649 5630 5619
5536 5537 5534 5531 5534 5531 5526 5521 5521 5516 5521 5612 5611 5616 5612 5600 5602 5602 5607 5584 5577 5574 5566 5580 5569 5566 5565 5574 5567 5549 5534 5530 5524 5524 5529 5552 5535 5592 5615 5617 5627 5635 5622 5604 5597
5527 5524 5521 5518 5521 5518 5513 5507 5500 5496 5523 5580 5596 5588 5586 5587 5587 5587 5585 5581 5574 5566 5563 5560 5550 5547 5553 5556 5553 5530 5516 5518 5515 5516 5517 5553 5537 5563 5585 5614 5629 5620 5595 5588 5583
5514 5511 5509 5508 5512 5502 5497 5491 5483 5503 5565 5572 5583 5583 5578 5576 5572 5568 5565 5559 5552 5536 5538 5549 5548 5549 5545 5540 5543 5524 5502 5509 5510 5516 5543 5561 5541 5550 5580 5586 5619 5582 5578 5575 5574
5489 5488 5488 5490 5495 5492 5487 5481 5496 5544 5546 5573 5576 5579 5571 5570 5568 5564 5558 5556 5556 5544 5543 5537 5545 5552 5549 5540 5536 5527 5508 5518 5517 5527 5541 5555 5532 5545 5561 5576 5571 5565 5560 5559 5561
5462 5465 5470 5473 5477 5475 5476 5481 5506 5539 5558 5556 5557 5555 5566 5569 5563 5562 5556 5558 5563 5542 5523 5538 5546 5560 5552 5542 5536 5517 5506 5525 5514 5516 5518 5537 5547 5552 5563 5561 5554 5546 5543 5543 5544
5442 5445 5451 5456 5459 5455 5459 5491 5511 5528 5531 5534 5531 5529 5543 5554 5550 5541 5555 5565 5560 5550 5545 5524 5530 5539 5542 5536 5536 5533 5532 5507 5499 5513 5526 5561 5558 5545 5553 5551 5549 5537 5530 5528 5526
5424 5426 5432 5438 5441 5435 5465 5484 5503 5519 5518 5523 5526 5529 5530 5535 5540 5526 5526 5549 5555 5550 5539 5518 5528 5526 5526 5531 5540 5534 5532 5510 5507 5531 5527 5543 5533 5525 5525 5521 5528 5533 5531 5529 5522
5406 5413 5418 5421 5420 5426 5458 5491 5497 5506 5516 5516 5517 5523 5526 5527 5528 5534 5525 5525 5538 5532 5524 5526 5522 5517 5525 5542 5541 5540 5531 5512 5511 5516 5516 5520 5529 5512 5498 5506 5520 5525 5519 5512 5505
5391 5392 5396 5406 5422 5433 5460 5479 5485 5500 5504 5506 5507 5511 5515 5511 5507 5516 5519 5506 5513 5518 5517 5518 5512 5508 5506 5518 5531 5528 5530 5533 5523 5524 5520 5516 5523 5501 5509 5512 5509 5508 5508 5502 5489
5379 5389 5381 5385 5405 5436 5451 5466 5475 5491 5494 5497 5498 5499 5503 5502 5507 5503 5499 5496 5504 5507 5497 5506 5511 5510 5507 5502 5523 5524 5528 5531 5525 5507 5517 5520 5514 5502 5503 5504 5495 5490 5486 5475 5463
5371 5394 5411 5396 5402 5423 5451 5470 5471 5476 5487 5488 5484 5489 5491 5490 5496 5495 5492 5487 5490 5480 5492 5497 5495 5506 5510 5510 5514 5518 5520 5523 5518 5516 5507 5513 5512 5488 5487 5485 5478 5475 5468 5455 5444
5378 5397 5415 5439 5422 5410 5435 5456 5472 5477 5479 5480 5480 5485 5482 5483 5488 5485 5479 5483 5478 5478 5482 5483 5479 5489 5492 5504 5504 5501 5508 5509 5509 5509 5506 5504 5497 5469 5455 5455 5450 5447 5440 5428 5419
5379 5400 5406 5428 5412 5422 5441 5451 5463 5473 5473 5481 5479 5477 5476 5475 5470 5479 5481 5481 5481 5469 5466 5474 5475 5478 5484 5495 5490 5486 5494 5499 5500 5501 5494 5490 5464 5456 5436 5420 5409 5408 5404 5396 5388